date,time,SUV Intensity [MED/Hr],UV Index,Daily total [MED],Since Last [MED]
02/07/2023,23:58:29,0.000,0.0,10.252,10.252
02/07/2023,23:59:29,-0.001,0.0,10.252,0.0
03/07/2023,00:00:29,0.000,0.0,0.0,-10.252
03/07/2023,00:01:30,0.000,0.0,0.0,0.0
03/07/2023,00:02:29,-0.000,0.0,0.0,0.0
03/07/2023,00:03:29,-0.000,0.0,0.0,0.0
03/07/2023,00:04:29,0.000,0.0,0.0,0.0
03/07/2023,00:05:29,0.000,0.0,0.0,0.0
03/07/2023,00:06:30,-0.000,0.0,0.0,0.0
03/07/2023,00:07:29,0.000,0.0,0.0,0.0
03/07/2023,00:08:30,0.001,0.0,0.0,0.0
03/07/2023,00:09:29,0.000,0.0,0.0,0.0
03/07/2023,00:10:29,0.000,0.0,0.0,0.0
03/07/2023,00:11:29,0.000,0.0,0.0,0.0
03/07/2023,00:12:29,0.000,0.0,0.0,0.0
03/07/2023,00:13:29,0.000,0.0,0.0,0.0
03/07/2023,00:14:29,0.000,0.0,0.0,0.0
03/07/2023,00:15:30,0.000,0.0,0.0,0.0
03/07/2023,00:16:29,0.000,0.0,0.0,0.0
03/07/2023,00:17:30,0.000,0.0,0.0,0.0
03/07/2023,00:18:30,0.000,0.0,0.0,0.0
03/07/2023,00:19:29,0.000,0.0,0.0,0.0
03/07/2023,00:20:30,0.000,0.0,0.0,0.0
03/07/2023,00:21:30,-0.001,0.0,0.0,0.0
03/07/2023,00:22:29,0.001,0.0,0.0,0.0
03/07/2023,00:23:30,0.000,0.0,0.0,0.0
03/07/2023,00:24:30,0.001,0.0,0.0,0.0
03/07/2023,00:25:29,0.000,0.0,0.0,0.0
03/07/2023,00:26:29,0.000,0.0,0.0,0.0
03/07/2023,00:27:29,0.000,0.0,0.0,0.0
03/07/2023,00:28:30,-0.000,0.0,0.0,0.0
03/07/2023,00:29:30,-0.001,0.0,0.0,0.0
03/07/2023,00:30:30,0.000,0.0,0.0,0.0
03/07/2023,00:31:29,0.000,0.0,0.0,0.0
03/07/2023,00:32:29,0.000,0.0,0.0,0.0
03/07/2023,00:33:29,0.000,0.0,0.0,0.0
03/07/2023,00:34:33,0.000,0.0,0.0,0.0
03/07/2023,00:35:30,0.001,0.0,0.0,0.0
03/07/2023,00:36:30,-0.001,0.0,0.0,0.0
03/07/2023,00:37:29,-0.001,0.0,0.0,0.0
03/07/2023,00:38:30,0.001,0.0,0.0,0.0
03/07/2023,00:39:30,0.001,0.0,0.0,0.0
03/07/2023,00:40:29,0.000,0.0,0.0,0.0
03/07/2023,00:41:29,-0.001,0.0,0.0,0.0
03/07/2023,00:42:29,0.000,0.0,0.0,0.0
03/07/2023,00:43:30,0.000,0.0,0.0,0.0
03/07/2023,00:44:30,0.000,0.0,0.0,0.0
03/07/2023,00:45:30,-0.001,0.0,0.0,0.0
03/07/2023,00:46:29,0.000,0.0,0.0,0.0
03/07/2023,00:47:29,0.001,0.0,0.0,0.0
03/07/2023,00:48:30,0.001,0.0,0.0,0.0
03/07/2023,00:49:30,0.000,0.0,0.0,0.0
03/07/2023,00:50:29,0.000,0.0,0.0,0.0
03/07/2023,00:51:29,0.000,0.0,0.0,0.0
03/07/2023,00:52:29,0.000,0.0,0.0,0.0
03/07/2023,00:53:29,0.000,0.0,0.0,0.0
03/07/2023,00:54:30,0.001,0.0,0.0,0.0
03/07/2023,00:55:30,0.001,0.0,0.0,0.0
03/07/2023,00:56:29,-0.001,0.0,0.0,0.0
03/07/2023,00:57:29,-0.000,0.0,0.0,0.0
03/07/2023,00:58:30,0.000,0.0,0.0,0.0
03/07/2023,00:59:30,0.000,0.0,0.0,0.0
03/07/2023,01:00:29,0.000,0.0,0.0,0.0
03/07/2023,01:01:30,0.000,0.0,0.0,0.0
03/07/2023,01:02:29,0.000,0.0,0.0,0.0
03/07/2023,01:03:30,0.000,0.0,0.0,0.0
03/07/2023,01:04:29,0.000,0.0,0.0,0.0
03/07/2023,01:05:29,0.000,0.0,0.0,0.0
03/07/2023,01:06:30,0.000,0.0,0.0,0.0
03/07/2023,01:07:29,0.000,0.0,0.0,0.0
03/07/2023,01:08:30,0.000,0.0,0.0,0.0
03/07/2023,01:09:29,-0.001,0.0,0.0,0.0
03/07/2023,01:10:30,-0.000,0.0,0.0,0.0
03/07/2023,01:11:30,-0.001,0.0,0.0,0.0
03/07/2023,01:12:29,-0.001,0.0,0.0,0.0
03/07/2023,01:13:30,-0.001,0.0,0.0,0.0
03/07/2023,01:14:30,0.000,0.0,0.0,0.0
03/07/2023,01:15:29,0.000,0.0,0.0,0.0
03/07/2023,01:16:29,-0.001,0.0,0.0,0.0
03/07/2023,01:17:30,0.000,0.0,0.0,0.0
03/07/2023,01:18:29,0.000,0.0,0.0,0.0
03/07/2023,01:19:29,0.000,0.0,0.0,0.0
03/07/2023,01:20:30,0.000,0.0,0.0,0.0
03/07/2023,01:21:30,0.000,0.0,0.0,0.0
03/07/2023,01:22:30,-0.000,0.0,0.0,0.0
03/07/2023,01:23:30,0.000,0.0,0.0,0.0
03/07/2023,01:24:30,0.001,0.0,0.0,0.0
03/07/2023,01:25:30,0.000,0.0,0.0,0.0
03/07/2023,01:26:30,0.000,0.0,0.0,0.0
03/07/2023,01:27:29,0.000,0.0,0.0,0.0
03/07/2023,01:28:29,-0.001,0.0,0.0,0.0
03/07/2023,01:29:29,-0.001,0.0,0.0,0.0
03/07/2023,01:30:30,-0.000,0.0,0.0,0.0
03/07/2023,01:31:30,-0.000,0.0,0.0,0.0
03/07/2023,01:32:29,0.001,0.0,0.0,0.0
03/07/2023,01:33:30,0.001,0.0,0.0,0.0
03/07/2023,01:34:30,-0.000,0.0,0.0,0.0
03/07/2023,01:35:30,-0.000,0.0,0.0,0.0
03/07/2023,01:36:30,0.000,0.0,0.0,0.0
03/07/2023,01:37:29,-0.001,0.0,0.0,0.0
03/07/2023,01:38:30,-0.000,0.0,0.0,0.0
03/07/2023,01:39:28,-0.000,0.0,0.0,0.0
03/07/2023,01:40:30,-0.000,0.0,0.0,0.0
03/07/2023,01:41:29,0.001,0.0,0.0,0.0
03/07/2023,01:42:29,-0.000,0.0,0.0,0.0
03/07/2023,01:43:30,0.000,0.0,0.0,0.0
03/07/2023,01:44:30,-0.000,0.0,0.0,0.0
03/07/2023,01:45:30,0.000,0.0,0.0,0.0
03/07/2023,01:46:29,-0.000,0.0,0.0,0.0
03/07/2023,01:47:30,-0.000,0.0,0.0,0.0
03/07/2023,01:48:30,0.000,0.0,0.0,0.0
03/07/2023,01:49:30,-0.001,0.0,0.0,0.0
03/07/2023,01:50:29,-0.000,0.0,0.0,0.0
03/07/2023,01:51:30,-0.000,0.0,0.0,0.0
03/07/2023,01:52:30,0.001,0.0,0.0,0.0
03/07/2023,01:53:29,-0.001,0.0,0.0,0.0
03/07/2023,01:54:30,-0.000,0.0,0.0,0.0
03/07/2023,01:55:30,0.000,0.0,0.0,0.0
03/07/2023,01:56:30,-0.000,0.0,0.0,0.0
03/07/2023,01:57:30,0.000,0.0,0.0,0.0
03/07/2023,01:58:29,-0.000,0.0,0.0,0.0
03/07/2023,01:59:29,-0.000,0.0,0.0,0.0
03/07/2023,02:00:30,-0.001,0.0,0.0,0.0
03/07/2023,02:01:30,-0.001,0.0,0.0,0.0
03/07/2023,02:02:30,0.000,0.0,0.0,0.0
03/07/2023,02:03:29,0.000,0.0,0.0,0.0
03/07/2023,02:04:30,-0.000,0.0,0.0,0.0
03/07/2023,02:05:30,0.001,0.0,0.0,0.0
03/07/2023,02:06:30,-0.000,0.0,0.0,0.0
03/07/2023,02:07:30,0.000,0.0,0.0,0.0
03/07/2023,02:08:29,0.000,0.0,0.0,0.0
03/07/2023,02:09:29,0.000,0.0,0.0,0.0
03/07/2023,02:10:29,0.000,0.0,0.0,0.0
03/07/2023,02:11:30,-0.000,0.0,0.0,0.0
03/07/2023,02:12:30,0.000,0.0,0.0,0.0
03/07/2023,02:13:30,0.000,0.0,0.0,0.0
03/07/2023,02:14:29,0.000,0.0,0.0,0.0
03/07/2023,02:15:30,-0.001,0.0,0.0,0.0
03/07/2023,02:16:29,0.001,0.0,0.0,0.0
03/07/2023,02:17:29,0.000,0.0,0.0,0.0
03/07/2023,02:18:29,0.000,0.0,0.0,0.0
03/07/2023,02:19:30,-0.000,0.0,0.0,0.0
03/07/2023,02:20:30,0.000,0.0,0.0,0.0
03/07/2023,02:21:30,-0.000,0.0,0.0,0.0
03/07/2023,02:22:30,0.000,0.0,0.0,0.0
03/07/2023,02:23:30,0.001,0.0,0.0,0.0
03/07/2023,02:24:29,0.000,0.0,0.0,0.0
03/07/2023,02:25:29,0.001,0.0,0.0,0.0
03/07/2023,02:26:30,0.001,0.0,0.0,0.0
03/07/2023,02:27:30,0.001,0.0,0.0,0.0
03/07/2023,02:28:29,0.001,0.0,0.0,0.0
03/07/2023,02:29:30,-0.000,0.0,0.0,0.0
03/07/2023,02:30:30,0.000,0.0,0.0,0.0
03/07/2023,02:31:29,0.001,0.0,0.0,0.0
03/07/2023,02:32:29,-0.000,0.0,0.0,0.0
03/07/2023,02:33:30,-0.001,0.0,0.0,0.0
03/07/2023,02:34:30,0.000,0.0,0.0,0.0
03/07/2023,02:35:29,0.000,0.0,0.0,0.0
03/07/2023,02:36:30,-0.000,0.0,0.0,0.0
03/07/2023,02:37:29,0.000,0.0,0.0,0.0
03/07/2023,02:38:30,0.000,0.0,0.0,0.0
03/07/2023,02:39:30,0.000,0.0,0.0,0.0
03/07/2023,02:40:29,0.000,0.0,0.0,0.0
03/07/2023,02:41:27,0.000,0.0,0.0,0.0
03/07/2023,02:42:30,0.000,0.0,0.0,0.0
03/07/2023,02:43:30,0.001,0.0,0.0,0.0
03/07/2023,02:44:29,0.000,0.0,0.0,0.0
03/07/2023,02:45:30,-0.000,0.0,0.0,0.0
03/07/2023,02:46:30,-0.000,0.0,0.0,0.0
03/07/2023,02:47:29,0.000,0.0,0.0,0.0
03/07/2023,02:48:30,-0.001,0.0,0.0,0.0
03/07/2023,02:49:29,0.000,0.0,0.0,0.0
03/07/2023,02:50:30,-0.000,0.0,0.0,0.0
03/07/2023,02:51:30,0.000,0.0,0.0,0.0
03/07/2023,02:52:30,0.001,0.0,0.0,0.0
03/07/2023,02:53:29,0.000,0.0,0.0,0.0
03/07/2023,02:54:30,0.000,0.0,0.0,0.0
03/07/2023,02:55:29,-0.000,0.0,0.0,0.0
03/07/2023,02:56:30,0.001,0.0,0.0,0.0
03/07/2023,02:57:30,0.001,0.0,0.0,0.0
03/07/2023,02:58:30,0.000,0.0,0.0,0.0
03/07/2023,02:59:29,-0.000,0.0,0.0,0.0
03/07/2023,03:00:29,0.000,0.0,0.0,0.0
03/07/2023,03:01:30,0.001,0.0,0.0,0.0
03/07/2023,03:02:30,0.001,0.0,0.0,0.0
03/07/2023,03:03:30,0.001,0.0,0.0,0.0
03/07/2023,03:04:29,0.001,0.0,0.0,0.0
03/07/2023,03:05:30,0.000,0.0,0.0,0.0
03/07/2023,03:06:30,0.001,0.0,0.0,0.0
03/07/2023,03:07:30,0.001,0.0,0.0,0.0
03/07/2023,03:08:30,0.002,0.0,0.0,0.0
03/07/2023,03:09:30,0.001,0.0,0.0,0.0
03/07/2023,03:10:29,0.001,0.0,0.0,0.0
03/07/2023,03:11:30,0.001,0.0,0.0,0.0
03/07/2023,03:12:30,0.001,0.0,0.0,0.0
03/07/2023,03:13:30,0.002,0.0,0.0,0.0
03/07/2023,03:14:29,0.001,0.0,0.0,0.0
03/07/2023,03:15:30,0.001,0.0,0.0,0.0
03/07/2023,03:16:30,0.000,0.0,0.0,0.0
03/07/2023,03:17:30,-0.000,0.0,0.0,0.0
03/07/2023,03:18:29,0.002,0.0,0.0,0.0
03/07/2023,03:19:30,0.002,0.0,0.0,0.0
03/07/2023,03:20:30,0.001,0.0,0.0,0.0
03/07/2023,03:21:30,0.002,0.0,0.0,0.0
03/07/2023,03:22:30,0.001,0.0,0.0,0.0
03/07/2023,03:23:30,0.001,0.0,0.0,0.0
03/07/2023,03:24:29,0.001,0.0,0.0,0.0
03/07/2023,03:25:30,0.001,0.0,0.0,0.0
03/07/2023,03:26:30,0.002,0.0,0.0,0.0
03/07/2023,03:27:29,0.001,0.0,0.0,0.0
03/07/2023,03:28:30,0.002,0.0,0.0,0.0
03/07/2023,03:29:30,0.000,0.0,0.0,0.0
03/07/2023,03:30:30,0.001,0.0,0.0,0.0
03/07/2023,03:31:30,0.001,0.0,0.0,0.0
03/07/2023,03:32:29,0.001,0.0,0.0,0.0
03/07/2023,03:33:30,0.001,0.0,0.0,0.0
03/07/2023,03:34:30,0.002,0.0,0.0,0.0
03/07/2023,03:35:29,0.001,0.0,0.0,0.0
03/07/2023,03:36:30,0.001,0.0,0.0,0.0
03/07/2023,03:37:30,0.002,0.0,0.0,0.0
03/07/2023,03:38:29,0.002,0.0,0.0,0.0
03/07/2023,03:39:30,0.002,0.0,0.0,0.0
03/07/2023,03:40:30,0.002,0.0,0.0,0.0
03/07/2023,03:41:29,0.001,0.0,0.0,0.0
03/07/2023,03:42:30,0.002,0.0,0.0,0.0
03/07/2023,03:43:30,0.002,0.0,0.0,0.0
03/07/2023,03:44:30,0.001,0.0,0.0,0.0
03/07/2023,03:45:29,0.002,0.0,0.0,0.0
03/07/2023,03:46:30,0.001,0.0,0.0,0.0
03/07/2023,03:47:30,0.003,0.0,0.0,0.0
03/07/2023,03:48:30,0.003,0.0,0.0,0.0
03/07/2023,03:49:29,0.003,0.0,0.0,0.0
03/07/2023,03:50:30,0.003,0.0,0.0,0.0
03/07/2023,03:51:30,0.003,0.0,0.0,0.0
03/07/2023,03:52:29,0.003,0.0,0.0,0.0
03/07/2023,03:53:30,0.003,0.0,0.0,0.0
03/07/2023,03:54:30,0.003,0.0,0.0,0.0
03/07/2023,03:55:29,0.004,0.0,0.0,0.0
03/07/2023,03:56:30,0.004,0.0,0.0,0.0
03/07/2023,03:57:30,0.003,0.0,0.0,0.0
03/07/2023,03:58:30,0.004,0.0,0.0,0.0
03/07/2023,03:59:30,0.003,0.0,0.0,0.0
03/07/2023,04:00:29,0.005,0.0,0.0,0.0
03/07/2023,04:01:30,0.005,0.0,0.0,0.0
03/07/2023,04:02:30,0.005,0.0,0.0,0.0
03/07/2023,04:03:30,0.005,0.0,0.0,0.0
03/07/2023,04:04:32,0.005,0.0,0.0,0.0
03/07/2023,04:05:29,0.006,0.0,0.0,0.0
03/07/2023,04:06:29,0.005,0.0,0.0,0.0
03/07/2023,04:07:30,0.007,0.0,0.0,0.0
03/07/2023,04:08:29,0.006,0.0,0.0,0.0
03/07/2023,04:09:30,0.007,0.0,0.0,0.0
03/07/2023,04:10:30,0.007,0.0,0.0,0.0
03/07/2023,04:11:30,0.007,0.0,0.0,0.0
03/07/2023,04:12:29,0.007,0.0,0.001,0.001
03/07/2023,04:13:30,0.008,0.0,0.001,0.0
03/07/2023,04:14:30,0.008,0.0,0.001,0.0
03/07/2023,04:15:29,0.008,0.0,0.001,0.0
03/07/2023,04:16:30,0.008,0.0,0.001,0.0
03/07/2023,04:17:30,0.009,0.0,0.001,0.0
03/07/2023,04:18:29,0.009,0.0,0.001,0.0
03/07/2023,04:19:30,0.008,0.0,0.002,0.001
03/07/2023,04:20:29,0.010,0.0,0.002,0.0
03/07/2023,04:21:30,0.009,0.0,0.002,0.0
03/07/2023,04:22:29,0.011,0.0,0.002,0.0
03/07/2023,04:23:30,0.011,0.0,0.002,0.0
03/07/2023,04:24:29,0.011,0.0,0.002,0.0
03/07/2023,04:25:30,0.011,0.0,0.003,0.001
03/07/2023,04:26:30,0.012,0.0,0.003,0.0
03/07/2023,04:27:29,0.012,0.0,0.003,0.0
03/07/2023,04:28:30,0.013,0.0,0.003,0.0
03/07/2023,04:29:30,0.012,0.0,0.003,0.0
03/07/2023,04:30:30,0.013,0.0,0.004,0.001
03/07/2023,04:31:30,0.015,0.0,0.004,0.0
03/07/2023,04:32:30,0.014,0.0,0.004,0.0
03/07/2023,04:33:30,0.015,0.0,0.004,0.0
03/07/2023,04:34:59,0.015,0.0,0.005,0.001
03/07/2023,04:36:30,0.016,0.0,0.005,0.0
03/07/2023,04:37:30,0.017,0.0,0.005,0.0
03/07/2023,04:38:30,0.017,0.0,0.006,0.001
03/07/2023,04:39:35,0.019,0.0,0.006,0.0
03/07/2023,04:40:30,0.018,0.0,0.006,0.0
03/07/2023,04:41:33,0.019,0.0,0.007,0.001
03/07/2023,04:42:30,0.019,0.0,0.007,0.0
03/07/2023,04:43:30,0.020,0.0,0.007,0.0
03/07/2023,04:44:30,0.021,0.0,0.008,0.001
03/07/2023,04:45:30,0.021,0.0,0.008,0.0
03/07/2023,04:46:30,0.023,0.0,0.008,0.0
03/07/2023,04:47:30,0.022,0.0,0.009,0.001
03/07/2023,04:48:30,0.024,0.0,0.009,0.0
03/07/2023,04:49:30,0.023,0.0,0.009,0.0
03/07/2023,04:50:29,0.024,0.0,0.01,0.001
03/07/2023,04:51:30,0.024,0.0,0.01,0.0
03/07/2023,04:52:30,0.024,0.0,0.011,0.001
03/07/2023,04:53:30,0.026,0.0,0.011,0.0
03/07/2023,04:54:29,0.026,0.0,0.011,0.0
03/07/2023,04:55:30,0.027,0.0,0.012,0.001
03/07/2023,04:56:29,0.028,0.0,0.012,0.0
03/07/2023,04:57:30,0.028,0.0,0.013,0.001
03/07/2023,04:58:30,0.028,0.0,0.013,0.0
03/07/2023,04:59:30,0.029,0.0,0.014,0.001
03/07/2023,05:00:31,0.029,0.0,0.014,0.0
03/07/2023,05:01:30,0.031,0.0,0.015,0.001
03/07/2023,05:02:30,0.032,0.0,0.015,0.0
03/07/2023,05:03:30,0.033,0.0,0.016,0.001
03/07/2023,05:04:30,0.033,0.0,0.016,0.0
03/07/2023,05:05:30,0.034,0.0,0.017,0.001
03/07/2023,05:06:30,0.035,0.0,0.017,0.0
03/07/2023,05:07:30,0.036,0.0,0.018,0.001
03/07/2023,05:08:29,0.037,0.0,0.019,0.001
03/07/2023,05:09:30,0.038,0.0,0.019,0.0
03/07/2023,05:10:29,0.039,0.0,0.02,0.001
03/07/2023,05:11:30,0.041,0.0,0.021,0.001
03/07/2023,05:12:30,0.041,0.0,0.021,0.0
03/07/2023,05:13:30,0.043,0.0,0.022,0.001
03/07/2023,05:14:30,0.044,0.0,0.023,0.001
03/07/2023,05:15:30,0.045,0.0,0.023,0.0
03/07/2023,05:16:30,0.047,0.0,0.024,0.001
03/07/2023,05:17:30,0.048,0.0,0.025,0.001
03/07/2023,05:18:30,0.049,0.0,0.026,0.001
03/07/2023,05:19:29,0.050,0.0,0.027,0.001
03/07/2023,05:20:30,0.051,0.0,0.027,0.0
03/07/2023,05:21:30,0.052,0.0,0.028,0.001
03/07/2023,05:22:29,0.054,0.0,0.029,0.001
03/07/2023,05:23:30,0.056,0.0,0.03,0.001
03/07/2023,05:24:30,0.057,0.0,0.031,0.001
03/07/2023,05:25:30,0.058,0.0,0.032,0.001
03/07/2023,05:26:30,0.060,0.0,0.033,0.001
03/07/2023,05:27:30,0.062,0.0,0.034,0.001
03/07/2023,05:28:30,0.062,0.0,0.035,0.001
03/07/2023,05:29:29,0.064,0.0,0.036,0.001
03/07/2023,05:30:30,0.066,0.0,0.037,0.001
03/07/2023,05:31:30,0.066,0.0,0.038,0.001
03/07/2023,05:32:30,0.068,0.0,0.039,0.001
03/07/2023,05:33:30,0.070,0.0,0.041,0.002
03/07/2023,05:34:29,0.071,0.0,0.042,0.001
03/07/2023,05:35:30,0.071,0.0,0.043,0.001
03/07/2023,05:36:30,0.074,0.0,0.044,0.001
03/07/2023,05:37:30,0.076,0.0,0.045,0.001
03/07/2023,05:38:30,0.076,0.0,0.047,0.002
03/07/2023,05:39:30,0.078,0.0,0.048,0.001
03/07/2023,05:40:30,0.079,0.0,0.049,0.001
03/07/2023,05:41:30,0.080,0.0,0.051,0.002
03/07/2023,05:42:29,0.083,0.0,0.052,0.001
03/07/2023,05:43:30,0.083,0.0,0.053,0.001
03/07/2023,05:44:30,0.085,0.0,0.055,0.002
03/07/2023,05:45:30,0.087,0.0,0.056,0.001
03/07/2023,05:46:30,0.089,0.0,0.058,0.002
03/07/2023,05:47:30,0.092,0.0,0.059,0.001
03/07/2023,05:48:30,0.094,0.0,0.061,0.002
03/07/2023,05:49:30,0.096,0.0,0.062,0.001
03/07/2023,05:50:30,0.098,0.0,0.064,0.002
03/07/2023,05:51:30,0.101,0.0,0.066,0.002
03/07/2023,05:52:30,0.101,0.0,0.067,0.001
03/07/2023,05:53:30,0.102,0.0,0.069,0.002
03/07/2023,05:54:30,0.107,0.0,0.071,0.002
03/07/2023,05:55:30,0.110,0.0,0.072,0.001
03/07/2023,05:56:30,0.109,0.0,0.074,0.002
03/07/2023,05:57:30,0.113,0.0,0.076,0.002
03/07/2023,05:58:29,0.113,0.0,0.078,0.002
03/07/2023,05:59:30,0.117,0.0,0.08,0.002
03/07/2023,06:00:30,0.121,0.0,0.082,0.002
03/07/2023,06:01:30,0.122,0.0,0.084,0.002
03/07/2023,06:02:30,0.123,0.0,0.086,0.002
03/07/2023,06:03:30,0.126,0.0,0.088,0.002
03/07/2023,06:04:30,0.127,0.0,0.09,0.002
03/07/2023,06:05:30,0.128,0.0,0.092,0.002
03/07/2023,06:06:30,0.133,0.0,0.095,0.003
03/07/2023,06:07:30,0.136,0.0,0.097,0.002
03/07/2023,06:08:30,0.140,0.0,0.099,0.002
03/07/2023,06:09:31,0.143,0.0,0.101,0.002
03/07/2023,06:10:31,0.145,0.0,0.104,0.003
03/07/2023,06:11:30,0.144,0.0,0.106,0.002
03/07/2023,06:12:30,0.146,0.0,0.109,0.003
03/07/2023,06:13:30,0.146,0.0,0.111,0.002
03/07/2023,06:14:30,0.147,0.0,0.114,0.003
03/07/2023,06:15:30,0.151,0.0,0.116,0.002
03/07/2023,06:16:30,0.154,0.0,0.119,0.003
03/07/2023,06:17:30,0.154,0.0,0.121,0.002
03/07/2023,06:18:30,0.154,0.0,0.124,0.003
03/07/2023,06:19:30,0.152,0.0,0.126,0.002
03/07/2023,06:20:30,0.153,0.0,0.129,0.003
03/07/2023,06:21:30,0.154,0.0,0.131,0.002
03/07/2023,06:22:30,0.155,0.0,0.134,0.003
03/07/2023,06:23:30,0.158,0.0,0.137,0.003
03/07/2023,06:24:30,0.160,0.0,0.139,0.002
03/07/2023,06:25:30,0.166,0.0,0.142,0.003
03/07/2023,06:26:30,0.169,0.0,0.145,0.003
03/07/2023,06:27:30,0.174,0.0,0.148,0.003
03/07/2023,06:28:30,0.179,0.0,0.15,0.002
03/07/2023,06:29:30,0.181,0.0,0.154,0.004
03/07/2023,06:30:30,0.182,0.0,0.157,0.003
03/07/2023,06:31:30,0.182,0.0,0.16,0.003
03/07/2023,06:32:30,0.182,0.0,0.163,0.003
03/07/2023,06:33:30,0.183,0.0,0.166,0.003
03/07/2023,06:34:29,0.183,0.0,0.169,0.003
03/07/2023,06:35:30,0.183,0.0,0.172,0.003
03/07/2023,06:36:30,0.181,0.0,0.175,0.003
03/07/2023,06:37:29,0.177,0.0,0.178,0.003
03/07/2023,06:38:30,0.178,0.0,0.181,0.003
03/07/2023,06:39:31,0.180,0.0,0.184,0.003
03/07/2023,06:40:30,0.186,0.0,0.187,0.003
03/07/2023,06:41:30,0.190,0.0,0.19,0.003
03/07/2023,06:42:30,0.197,0.0,0.193,0.003
03/07/2023,06:43:31,0.206,0.0,0.196,0.003
03/07/2023,06:44:29,0.212,0.0,0.2,0.004
03/07/2023,06:45:30,0.221,1.0,0.204,0.004
03/07/2023,06:46:30,0.230,1.0,0.207,0.003
03/07/2023,06:47:30,0.239,1.0,0.211,0.004
03/07/2023,06:48:30,0.248,1.0,0.215,0.004
03/07/2023,06:49:30,0.275,1.0,0.22,0.005
03/07/2023,06:50:30,0.259,1.0,0.224,0.004
03/07/2023,06:51:30,0.266,1.0,0.228,0.004
03/07/2023,06:52:30,0.272,1.0,0.233,0.005
03/07/2023,06:53:30,0.308,1.0,0.238,0.005
03/07/2023,06:54:30,0.317,1.0,0.243,0.005
03/07/2023,06:55:30,0.304,1.0,0.248,0.005
03/07/2023,06:56:30,0.319,1.0,0.253,0.005
03/07/2023,06:57:30,0.281,1.0,0.258,0.005
03/07/2023,06:58:30,0.288,1.0,0.263,0.005
03/07/2023,06:59:30,0.323,1.0,0.268,0.005
03/07/2023,07:00:30,0.324,1.0,0.273,0.005
03/07/2023,07:01:30,0.350,1.0,0.279,0.006
03/07/2023,07:02:30,0.356,1.0,0.285,0.006
03/07/2023,07:03:30,0.362,1.0,0.291,0.006
03/07/2023,07:04:30,0.365,1.0,0.296,0.005
03/07/2023,07:05:31,0.354,1.0,0.303,0.007
03/07/2023,07:06:30,0.380,1.0,0.309,0.006
03/07/2023,07:07:30,0.388,1.0,0.315,0.006
03/07/2023,07:08:30,0.396,1.0,0.322,0.007
03/07/2023,07:09:30,0.402,1.0,0.328,0.006
03/07/2023,07:10:30,0.411,1.0,0.335,0.007
03/07/2023,07:11:30,0.416,1.0,0.342,0.007
03/07/2023,07:12:30,0.427,1.0,0.349,0.007
03/07/2023,07:13:30,0.441,1.0,0.356,0.007
03/07/2023,07:14:30,0.436,1.0,0.364,0.008
03/07/2023,07:15:30,0.411,1.0,0.371,0.007
03/07/2023,07:16:30,0.415,1.0,0.378,0.007
03/07/2023,07:17:30,0.420,1.0,0.385,0.007
03/07/2023,07:18:30,0.457,1.0,0.392,0.007
03/07/2023,07:19:30,0.481,1.0,0.4,0.008
03/07/2023,07:20:31,0.443,1.0,0.408,0.008
03/07/2023,07:21:30,0.452,1.0,0.415,0.007
03/07/2023,07:22:30,0.481,1.0,0.423,0.008
03/07/2023,07:23:30,0.503,1.0,0.431,0.008
03/07/2023,07:24:31,0.463,1.0,0.439,0.008
03/07/2023,07:25:30,0.482,1.0,0.447,0.008
03/07/2023,07:26:30,0.519,1.0,0.456,0.009
03/07/2023,07:27:30,0.527,1.0,0.464,0.008
03/07/2023,07:28:30,0.529,1.0,0.473,0.009
03/07/2023,07:29:30,0.550,1.0,0.482,0.009
03/07/2023,07:30:30,0.486,1.0,0.491,0.009
03/07/2023,07:31:30,0.450,1.0,0.499,0.008
03/07/2023,07:32:30,0.467,1.0,0.506,0.007
03/07/2023,07:33:30,0.486,1.0,0.515,0.009
03/07/2023,07:34:30,0.445,1.0,0.522,0.007
03/07/2023,07:35:31,0.452,1.0,0.53,0.008
03/07/2023,07:36:30,0.465,1.0,0.537,0.007
03/07/2023,07:37:30,0.481,1.0,0.545,0.008
03/07/2023,07:38:30,0.490,1.0,0.553,0.008
03/07/2023,07:39:33,0.495,1.0,0.562,0.009
03/07/2023,07:40:31,0.549,1.0,0.571,0.009
03/07/2023,07:41:30,0.521,1.0,0.58,0.009
03/07/2023,07:42:30,0.474,1.0,0.588,0.008
03/07/2023,07:43:29,0.461,1.0,0.595,0.007
03/07/2023,07:44:29,0.440,1.0,0.603,0.008
03/07/2023,07:45:30,0.433,1.0,0.611,0.008
03/07/2023,07:46:30,0.429,1.0,0.618,0.007
03/07/2023,07:47:30,0.403,1.0,0.625,0.007
03/07/2023,07:48:30,0.386,1.0,0.631,0.006
03/07/2023,07:49:30,0.362,1.0,0.637,0.006
03/07/2023,07:50:30,0.346,1.0,0.643,0.006
03/07/2023,07:51:30,0.342,1.0,0.649,0.006
03/07/2023,07:52:31,0.351,1.0,0.655,0.006
03/07/2023,07:53:30,0.355,1.0,0.661,0.006
03/07/2023,07:54:30,0.357,1.0,0.667,0.006
03/07/2023,07:55:31,0.366,1.0,0.673,0.006
03/07/2023,07:56:30,0.369,1.0,0.679,0.006
03/07/2023,07:57:30,0.378,1.0,0.685,0.006
03/07/2023,07:58:31,0.391,1.0,0.691,0.006
03/07/2023,07:59:30,0.402,1.0,0.698,0.007
03/07/2023,08:00:31,0.406,1.0,0.705,0.007
03/07/2023,08:01:30,0.409,1.0,0.712,0.007
03/07/2023,08:02:31,0.421,1.0,0.718,0.006
03/07/2023,08:03:30,0.435,1.0,0.726,0.008
03/07/2023,08:04:30,0.448,1.0,0.733,0.007
03/07/2023,08:05:30,0.467,1.0,0.741,0.008
03/07/2023,08:06:30,0.502,1.0,0.749,0.008
03/07/2023,08:07:30,0.541,1.0,0.757,0.008
03/07/2023,08:08:30,0.545,1.0,0.766,0.009
03/07/2023,08:09:30,0.549,1.0,0.776,0.01
03/07/2023,08:10:31,0.549,1.0,0.785,0.009
03/07/2023,08:11:30,0.592,1.0,0.794,0.009
03/07/2023,08:12:31,0.652,1.0,0.805,0.011
03/07/2023,08:13:30,0.678,2.0,0.817,0.012
03/07/2023,08:14:30,0.581,1.0,0.827,0.01
03/07/2023,08:15:30,0.564,1.0,0.837,0.01
03/07/2023,08:16:31,0.584,1.0,0.846,0.009
03/07/2023,08:17:30,0.652,1.0,0.856,0.01
03/07/2023,08:18:31,0.673,2.0,0.868,0.012
03/07/2023,08:19:30,0.636,1.0,0.879,0.011
03/07/2023,08:20:31,0.676,2.0,0.89,0.011
03/07/2023,08:21:30,0.665,2.0,0.902,0.012
03/07/2023,08:22:31,0.910,2.0,0.915,0.013
03/07/2023,08:23:30,0.605,1.0,0.928,0.013
03/07/2023,08:24:30,0.581,1.0,0.938,0.01
03/07/2023,08:25:30,0.600,1.0,0.948,0.01
03/07/2023,08:26:30,0.582,1.0,0.957,0.009
03/07/2023,08:27:31,0.602,1.0,0.967,0.01
03/07/2023,08:28:31,0.669,2.0,0.978,0.011
03/07/2023,08:29:30,0.634,1.0,0.988,0.01
03/07/2023,08:30:31,0.640,1.0,0.999,0.011
03/07/2023,08:31:31,0.654,2.0,1.01,0.011
03/07/2023,08:32:30,0.856,2.0,1.022,0.012
03/07/2023,08:33:31,1.034,2.0,1.036,0.014
03/07/2023,08:34:30,1.054,2.0,1.053,0.017
03/07/2023,08:35:31,1.075,2.0,1.071,0.018
03/07/2023,08:36:30,1.108,3.0,1.089,0.018
03/07/2023,08:37:31,1.160,3.0,1.108,0.019
03/07/2023,08:38:30,0.834,2.0,1.126,0.018
03/07/2023,08:39:30,0.788,2.0,1.139,0.013
03/07/2023,08:40:30,0.664,2.0,1.151,0.012
03/07/2023,08:41:31,0.652,1.0,1.162,0.011
03/07/2023,08:42:30,0.695,2.0,1.173,0.011
03/07/2023,08:43:31,0.737,2.0,1.185,0.012
03/07/2023,08:44:30,0.965,2.0,1.198,0.013
03/07/2023,08:45:31,1.164,3.0,1.216,0.018
03/07/2023,08:46:31,1.204,3.0,1.237,0.021
03/07/2023,08:47:30,1.152,3.0,1.256,0.019
03/07/2023,08:48:31,1.135,3.0,1.273,0.017
03/07/2023,08:49:30,1.299,3.0,1.294,0.021
03/07/2023,08:50:30,0.892,2.0,1.314,0.02
03/07/2023,08:51:31,0.835,2.0,1.329,0.015
03/07/2023,08:52:31,1.299,3.0,1.346,0.017
03/07/2023,08:53:31,1.055,2.0,1.363,0.017
03/07/2023,08:54:30,1.117,3.0,1.38,0.017
03/07/2023,08:55:30,1.342,3.0,1.401,0.021
03/07/2023,08:56:30,1.348,3.0,1.422,0.021
03/07/2023,08:57:31,1.323,3.0,1.445,0.023
03/07/2023,08:58:30,1.149,3.0,1.463,0.018
03/07/2023,08:59:31,0.582,1.0,1.474,0.011
03/07/2023,09:00:30,0.516,1.0,1.483,0.009
03/07/2023,09:01:30,0.513,1.0,1.492,0.009
03/07/2023,09:02:30,0.492,1.0,1.5,0.008
03/07/2023,09:03:30,0.443,1.0,1.508,0.008
03/07/2023,09:04:30,0.387,1.0,1.515,0.007
03/07/2023,09:05:30,0.380,1.0,1.521,0.006
03/07/2023,09:06:30,0.410,1.0,1.528,0.007
03/07/2023,09:07:31,0.419,1.0,1.534,0.006
03/07/2023,09:08:31,0.451,1.0,1.542,0.008
03/07/2023,09:09:31,0.502,1.0,1.55,0.008
03/07/2023,09:10:30,0.493,1.0,1.558,0.008
03/07/2023,09:11:31,0.464,1.0,1.566,0.008
03/07/2023,09:12:30,0.467,1.0,1.574,0.008
03/07/2023,09:13:30,0.480,1.0,1.582,0.008
03/07/2023,09:14:30,0.470,1.0,1.59,0.008
03/07/2023,09:15:30,0.473,1.0,1.597,0.007
03/07/2023,09:16:30,0.475,1.0,1.605,0.008
03/07/2023,09:17:31,0.544,1.0,1.614,0.009
03/07/2023,09:18:30,0.558,1.0,1.623,0.009
03/07/2023,09:19:30,0.488,1.0,1.632,0.009
03/07/2023,09:20:30,0.448,1.0,1.639,0.007
03/07/2023,09:21:31,0.435,1.0,1.647,0.008
03/07/2023,09:22:30,0.394,1.0,1.654,0.007
03/07/2023,09:23:31,0.368,1.0,1.66,0.006
03/07/2023,09:24:30,0.359,1.0,1.666,0.006
03/07/2023,09:25:31,0.367,1.0,1.672,0.006
03/07/2023,09:26:30,0.415,1.0,1.679,0.007
03/07/2023,09:27:31,0.443,1.0,1.686,0.007
03/07/2023,09:28:30,0.443,1.0,1.693,0.007
03/07/2023,09:29:30,0.492,1.0,1.701,0.008
03/07/2023,09:30:31,0.642,1.0,1.71,0.009
03/07/2023,09:31:30,0.671,2.0,1.721,0.011
03/07/2023,09:32:30,0.502,1.0,1.731,0.01
03/07/2023,09:33:30,0.531,1.0,1.74,0.009
03/07/2023,09:34:31,0.575,1.0,1.749,0.009
03/07/2023,09:35:30,0.482,1.0,1.758,0.009
03/07/2023,09:36:30,0.389,1.0,1.765,0.007
03/07/2023,09:37:30,0.409,1.0,1.772,0.007
03/07/2023,09:38:31,0.482,1.0,1.779,0.007
03/07/2023,09:39:30,0.542,1.0,1.788,0.009
03/07/2023,09:40:31,0.560,1.0,1.797,0.009
03/07/2023,09:41:30,0.497,1.0,1.806,0.009
03/07/2023,09:42:30,0.513,1.0,1.814,0.008
03/07/2023,09:43:31,0.697,2.0,1.824,0.01
03/07/2023,09:44:30,0.963,2.0,1.838,0.014
03/07/2023,09:45:31,1.066,2.0,1.855,0.017
03/07/2023,09:46:31,1.112,3.0,1.873,0.018
03/07/2023,09:47:31,1.143,3.0,1.892,0.019
03/07/2023,09:48:30,1.164,3.0,1.911,0.019
03/07/2023,09:49:30,1.206,3.0,1.932,0.021
03/07/2023,09:50:31,1.230,3.0,1.953,0.021
03/07/2023,09:51:30,1.217,3.0,1.973,0.02
03/07/2023,09:52:30,1.198,3.0,1.993,0.02